Regional Weather Roundup
Issued by NWS

Home | Current Version | Previous Version | Graphics & Text | Print | Product List | Glossary On
Versions: 1 2 3 4 5 6 7 8 9 10 11 12 13 14 15 16 17 18 19 20 21 22 23 24 25 26 27
000
ASUS45 KSLC 301210
RWRUT

UTAH REGIONAL WEATHER ROUNDUP
NATIONAL WEATHER SERVICE SALT LAKE CITY UT
600 AM MDT SAT APR 30 2016

UTZ001>011-023>025-301300-

NORTHERN UTAH

CITY           SKY/WX    TMP DP  RH WIND       PRES   REMARKS
BRIGHAM CITY   MOCLDY    42  37  81 CALM      29.89S
HILL AFB       CLEAR     42  34  72 E16       29.87S
LOGAN          CLOUDY    37  36  96 CALM      29.91S
OGDEN          PTCLDY    41  35  79 CALM      29.87S
PROVO AIRPORT  CLEAR     37  32  81 CALM      29.88R
SALT LAKE CITY MOCLDY    44  40  85 SW6       29.87S
VERNAL         CLOUDY    40  30  67 NE9       29.89S WCI  34
WENDOVER       CLOUDY    46  34  61 W5        29.90R
HEBER CITY     PTCLDY    36  34  93 CALM      29.88S

$$

UTZ012>022-026-027-301300-

SOUTHERN/CENTRAL UTAH

CITY           SKY/WX    TMP DP  RH WIND       PRES   REMARKS
BLANDING       CLEAR     33  31  92 N6        29.92S WCI  28
BRYCE CANYON   CLOUDY    34  31  88 NE7       29.86F WCI  28
CEDAR CITY     CLOUDY    40  37  89 E5        29.81F
DELTA          CLOUDY    37  36  93 N5        29.87R WCI  34
HANKSVILLE     CLEAR     39  37  93 N3        29.85R
MILFORD        MOCLDY    41  39  93 N5        29.83S
MOAB/CYNLANDS  CLOUDY    47  39  74 E3        29.82R
PRICE          PTCLDY    38  29  70 CALM      29.85R
ST GEORGE      CLOUDY    48  43  81 NE3       29.81F

$$

REGIONAL REPORTS     COLORADO/ARIZONA

CITY           SKY/WX    TMP DP  RH WIND       PRES   REMARKS
CRAIG, CO      LGT SNOW  34  31  88 SW12      29.87R FOG     WCI  25
GRAND JUNCTION CLOUDY    40  39  97 CALM      29.84S
RIFLE          CLOUDY    40  29  64 NW13      29.85F WCI  32
MONTROSE       CLOUDY    40  36  86 S3        29.86S
CORTEZ         CLEAR     29  27  92 E5        29.86S WCI  24
PAGE, AZ       CLOUDY    51  39  63 CALM      29.81F
GRAND CANYON   CLOUDY    41  33  73 SE7       29.83F
KINGMAN        MOCLDY    53  37  54 S10       29.72S
FLAGSTAFF      CLOUDY    36  35  96 S3        29.86F

$$

REGIONAL REPORTS    NEVADA/IDAHO/WYOMING

CITY           SKY/WX    TMP DP  RH WIND       PRES   REMARKS
LAS VEGAS, NV  LGT RAIN  52  41  66 NW23G33   29.70S
ELY            CLOUDY    36  34  92 N20G25    29.88S WCI  25
ELKO           MOCLDY    39  34  82 N5        29.96R
POCATELLO, ID  CLOUDY    36  35  96 NW5       29.96R WCI  32
BURLEY         CLOUDY    41  37  86 W10G20    29.96R
EVANSTON, WY   PTCLDY    31  26  82 E8        29.93S WCI  23
ROCK SPRINGS   LGT SNOW  31  28  89 NE10      29.96S FOG     WCI  22
KEMMERER       LGT SNOW  32  30  93 E6        29.97R WCI  26

$$




USA.gov is the U.S. government's official web portal to all federal, state and local government web resources and services.